Location: Unspecified
(0.0000°N, 0.0000°E)
Time: 18:26:22
(UTC+00:00)

COSMOS 2401 - Pass Details

Date: 01 March 2021
Orbit: 1467 x 1500 km, 82.5° (Epoch: 11 April)

Event Time Altitude Azimuth Distance (km) Brightness Sun altitude
Rises 21:14:51 0° 217° (SW) 4,578 10.5 -45.2°
Reaches altitude 10° 21:18:57 10° 235° (SW) 3,598 9.9 -46.2°
Maximum altitude 21:24:12 18° 273° (W) 3,034 9.4 -47.5°
Drops below altitude 10° 21:29:29 10° 312° (NW) 3,600 9.7 -48.8°
Sets 21:33:39 0° 330° (NNW) 4,583 10.2 -49.8°
